Weather History for North Platte, NE

Change the Weather History Date:

Friday, January 11, 2013

  Actual Average Record
Temperature  
Mean Temperature 26 °F 25 °F  
Max Temperature 38 °F 39 °F 68 °F (2006)
Min Temperature 13 °F 11 °F -26 °F (1892)
Degree Days  
Heating Degree Days 39 40  
Month to date heating degree days 445 445  
Since 1 July heating degree days 3160 3225  
Cooling Degree Days 0 0  
Month to date cooling degree days 0 0  
Year to date cooling degree days 0 0  
Moisture  
Dew Point 25 °F    
Average Humidity 84    
Maximum Humidity 100    
Minimum Humidity 67    
Precipitation  
Precipitation 0.03 in 0.01 in 0.40 in (1905)
Month to date precipitation 0.03 0.13  
Year to date precipitation 0.03 0.13  
Snow  
Snow 0.50 in 0.20 in 6.00 in (1905)
Month to date snowfall 0.6 1.8  
Since 1 July snowfall 8.5 12.6  
Snow Depth T in    
Sea Level Pressure  
Sea Level Pressure 29.53 in    
Wind  
Wind Speed 12 mph (NNW)    
Max Wind Speed 28 mph    
Max Gust Speed 35 mph    
Visibility 4 miles    
Events Fog , Rain , Snow    
T = Trace of Precipitation, MM = Missing Value Source: NWS Daily Summary

Daily Weather History Graph

Daily Weather History Graph

Search for Another Location

Airport:

Trip Planner

Search our weather history database for the weather conditions in past years. The results will help you decide how hot, cold, wet, or windy it might be!

Date:

Astronomy

Jan. 11, 2013 Rise Set
Actual Time 8:07 AM CST 5:34 PM CST
Civil Twilight 7:36 AM CST 6:05 PM CST
Nautical Twilight 7:02 AM CST 6:39 PM CST
Astronomical Twilight 6:29 AM CST 7:12 PM CST
Moon 7:41 AM CST (1/11) 5:55 PM CST (1/11)
Length of Visible Light 10h 28m
Length of Day
9h 27m
Waning Crescent, 0% of the Moon is Illuminated
Jan 11
Waning Crescent
Jan 11
New
Jan 18
First Quarter
Jan 26
Full
Feb 3
Last Quarter

Hourly Weather History & Observations

Time (CST) Temp. Windchill Dew Point Humidity Pressure Visibility Wind Dir Wind Speed Gust Speed Precip Events Conditions
12:17 AM 33.8 °F 27.0 °F 33.8 °F 100% 29.53 in 1.5 mi South 8.1 mph - N/A   Overcast
12:53 AM 34.0 °F 28.0 °F 34.0 °F 100% 29.54 in 1.0 mi South 6.9 mph - N/A   Mist
1:53 AM 35.1 °F 28.6 °F 34.0 °F 96% 29.54 in 1.2 mi SSE 8.1 mph - N/A   Overcast
2:08 AM 35.6 °F 30.7 °F 33.8 °F 93% 29.49 in 1.5 mi SSE 5.8 mph - N/A   Overcast
2:25 AM 35.6 °F 29.9 °F 33.8 °F 93% 29.48 in 1.2 mi SSE 6.9 mph - N/A   Overcast
2:34 AM 35.6 °F 31.7 °F 33.8 °F 93% 29.46 in 1.5 mi SE 4.6 mph - N/A   Overcast
2:53 AM 35.1 °F 31.0 °F 34.0 °F 96% 29.50 in 1.8 mi SSE 4.6 mph - N/A   Overcast
3:21 AM 35.6 °F 30.7 °F 33.8 °F 93% 29.45 in 1.0 mi SE 5.8 mph - N/A   Overcast
3:53 AM 34.0 °F 29.8 °F 34.0 °F 100% 29.49 in 1.0 mi SE 4.6 mph - N/A   Overcast
4:33 AM 35.6 °F 29.9 °F 33.8 °F 93% 29.43 in 1.8 mi South 6.9 mph - N/A   Overcast
4:41 AM 35.6 °F 29.2 °F 33.8 °F 93% 29.43 in 2.5 mi South 8.1 mph - N/A   Overcast
4:53 AM 35.1 °F 29.3 °F 34.0 °F 96% 29.46 in 2.0 mi South 6.9 mph - N/A   Overcast
5:12 AM 35.6 °F 30.7 °F 33.8 °F 93% 29.40 in 1.8 mi South 5.8 mph - N/A   Overcast
5:33 AM 35.6 °F 31.7 °F 33.8 °F 93% 29.39 in 2.0 mi SSE 4.6 mph - N/A   Overcast
5:53 AM 35.1 °F 31.0 °F 34.0 °F 96% 29.43 in 2.5 mi SSE 4.6 mph - N/A   Overcast
6:00 AM 35.6 °F 31.7 °F 33.8 °F 93% 29.37 in 3.0 mi SE 4.6 mph - N/A   Overcast
6:53 AM 35.1 °F 32.2 °F 34.0 °F 96% 29.41 in 3.0 mi SSW 3.5 mph - N/A   Overcast
7:53 AM 35.1 °F - 33.1 °F 92% 29.41 in 5.0 mi Calm Calm - N/A   Overcast
8:53 AM 34.0 °F - 33.1 °F 96% 29.42 in 4.0 mi Calm Calm - N/A   Overcast
9:53 AM 35.1 °F 32.2 °F 33.1 °F 92% 29.42 in 4.0 mi NE 3.5 mph - N/A   Overcast
10:49 AM 35.6 °F 27.5 °F 33.8 °F 93% 29.37 in 7.0 mi North 11.5 mph - N/A   Overcast
10:53 AM 35.1 °F 27.4 °F 33.1 °F 92% 29.41 in 8.0 mi North 10.4 mph - N/A   Overcast
11:49 AM 37.4 °F 30.3 °F 33.8 °F 87% 29.37 in 7.0 mi NE 10.4 mph - N/A   Overcast
11:53 AM 37.0 °F 30.4 °F 33.1 °F 86% 29.41 in 8.0 mi NE 9.2 mph - N/A   Overcast
12:30 PM 33.8 °F 22.8 °F 30.2 °F 87% 29.35 in 10.0 mi North 18.4 mph 26.5 mph N/A   Overcast
12:53 PM 32.0 °F 21.2 °F 28.9 °F 88% 29.39 in 10.0 mi NNE 16.1 mph - N/A   Overcast
1:53 PM 30.0 °F 17.9 °F 27.0 °F 88% 29.39 in 10.0 mi NNE 18.4 mph 27.6 mph N/A   Overcast
2:53 PM 28.9 °F 16.1 °F 26.1 °F 89% 29.44 in 6.0 mi North 19.6 mph 26.5 mph N/A   Overcast
3:34 PM 28.4 °F 16.6 °F 24.8 °F 86% 29.42 in 4.0 mi North 16.1 mph - N/A   Overcast
3:53 PM 28.0 °F 16.1 °F 25.0 °F 88% 29.51 in 3.0 mi NNW 16.1 mph 23.0 mph 0.00 in Rain Light Freezing Rain
4:05 PM 28.4 °F 15.4 °F 24.8 °F 86% 29.44 in 2.5 mi North 19.6 mph 25.3 mph 0.00 in Rain Light Freezing Rain
4:12 PM 28.4 °F 15.1 °F 24.8 °F 86% 29.44 in 3.0 mi NNW 20.7 mph 26.5 mph 0.00 in Rain Light Freezing Rain
4:18 PM 26.6 °F 12.7 °F 24.8 °F 93% 29.45 in 2.5 mi NNW 20.7 mph 27.6 mph 0.00 in Snow Light Snow
4:29 PM 26.6 °F 15.2 °F 23.0 °F 86% 29.49 in 3.0 mi NNW 13.8 mph 24.2 mph 0.00 in Snow Light Snow
4:53 PM 26.1 °F 12.3 °F 21.0 °F 81% 29.56 in 6.0 mi NNW 19.6 mph 28.8 mph 0.00 in Rain Light Freezing Rain
4:58 PM 26.6 °F 13.4 °F 21.2 °F 80% 29.52 in 3.0 mi NNW 18.4 mph 27.6 mph 0.00 in Snow Light Snow
5:00 PM 26.6 °F 13.4 °F 21.2 °F 80% 29.52 in 1.5 mi NNW 18.4 mph 27.6 mph 0.00 in Snow Light Snow
5:03 PM 26.6 °F 13.4 °F 21.2 °F 80% 29.52 in 0.8 mi NNW 18.4 mph 26.5 mph 0.00 in Snow Light Snow
5:09 PM 24.8 °F 11.5 °F 21.2 °F 86% 29.53 in 0.2 mi NNW 17.3 mph 26.5 mph 0.01 in Fog , Snow Snow
5:18 PM 24.8 °F 11.1 °F 19.4 °F 80% 29.54 in 0.5 mi NNW 18.4 mph 29.9 mph 0.01 in Fog , Snow Snow
5:34 PM 24.8 °F 10.3 °F 19.4 °F 80% 29.56 in 1.5 mi NNW 20.7 mph 26.5 mph 0.02 in Snow Light Snow
5:40 PM 23.0 °F 8.7 °F 19.4 °F 86% 29.56 in 2.5 mi NNW 18.4 mph 27.6 mph 0.02 in Snow Light Snow
5:48 PM 21.2 °F 4.5 °F 15.8 °F 80% 29.58 in 7.0 mi NW 24.2 mph 34.5 mph 0.02 in Snow Light Snow
5:53 PM 21.9 °F 7.3 °F 16.0 °F 78% 29.66 in 9.0 mi NW 18.4 mph 34.5 mph 0.02 in   Overcast
6:06 PM 21.2 °F 6.8 °F 15.8 °F 80% 29.59 in 1.8 mi NW 17.3 mph - 0.00 in Snow Light Snow
6:18 PM 21.2 °F 5.6 °F 15.8 °F 80% 29.60 in 1.2 mi NW 20.7 mph 25.3 mph 0.00 in Snow Light Snow
6:31 PM 19.4 °F 1.4 °F 15.8 °F 86% 29.62 in 1.0 mi NW 26.5 mph 33.4 mph 0.01 in Snow Light Snow
6:37 PM 19.4 °F 3.2 °F 15.8 °F 86% 29.63 in 1.5 mi NW 20.7 mph 33.4 mph 0.01 in Snow Light Snow
6:53 PM 19.0 °F 1.6 °F 14.0 °F 81% 29.73 in 3.0 mi NW 24.2 mph 32.2 mph 0.01 in Snow Light Snow
7:08 PM 19.4 °F 4.1 °F 12.2 °F 74% 29.66 in 5.0 mi NW 18.4 mph 31.1 mph 0.00 in Snow Light Snow
7:27 PM 17.6 °F 1.7 °F 12.2 °F 79% 29.68 in 10.0 mi NW 18.4 mph 26.5 mph 0.00 in Rain Light Freezing Rain
7:53 PM 17.1 °F 1.5 °F 10.9 °F 77% 29.78 in 10.0 mi NW 17.3 mph - 0.00 in   Overcast
8:53 PM 17.1 °F 0.1 °F 10.9 °F 77% 29.82 in 10.0 mi WNW 20.7 mph 26.5 mph N/A   Mostly Cloudy
9:53 PM 15.1 °F -1.1 °F 8.1 °F 74% 29.86 in 10.0 mi NW 17.3 mph 26.5 mph N/A   Mostly Cloudy
10:53 PM 15.1 °F 1.1 °F 7.0 °F 70% 29.90 in 10.0 mi WNW 12.7 mph 21.9 mph N/A   Clear
11:53 PM 14.0 °F -1.4 °F 6.1 °F 71% 29.93 in 10.0 mi West 15.0 mph 21.9 mph N/A   Clear